1998-067JC

Last updated on Fri May 20 2016 09:36:28 GMT+0000 (Coordinated Universal Time)

1 41482U 98067JC 16141.19339275 .00028540 00000-0 41693-3 0 9996 2 41482 51.6421 197.6772 0002409 225.9380 226.0209 15.55404562 427

Satellite not in orbit